Location: Albuquerque Trailhead
(34.7934°N, 106.3736°W)
Time: 14:13:39
(UTC+00:00)

XW-2F - Visible Passes

Search period start: 27 March 2023 00:00
Search period end: 06 April 2023 00:00
Orbit: 459 x 476 km, 97.5° (Epoch: 27 March)

Date Brightness Start Highest point End Pass type
(mag) Time Alt. Az. Time Alt. Az. Time Alt. Az.
30 Mar ? 01:46:45 10° SW 01:49:05 17° W 01:51:26 10° NW visible
02 Apr ? 01:50:45 10° SW 01:52:51 15° W 01:54:58 10° WNW visible
05 Apr ? 01:54:07 10° SW 01:56:01 14° W 01:57:54 10° WNW visible
